Weather History for Lamar, CO

Change the Weather History Date:

Thursday, May 15, 2014

  Actual Average Record
Temperature  
Mean Temperature 53 °F 62 °F  
Max Temperature 69 °F 78 °F 96 °F (1931)
Min Temperature 36 °F 46 °F 26 °F (1924)
Degree Days  
Heating Degree Days 12 5  
Month to date heating degree days 124 96  
Since 1 July heating degree days 5448 5496  
Cooling Degree Days 0 2  
Month to date cooling degree days 9 14  
Year to date cooling degree days 24 19  
Growing Degree Days 2 (Base 50)    
Moisture  
Dew Point 31 °F    
Average Humidity 52    
Maximum Humidity 82    
Minimum Humidity 22    
Precipitation  
Precipitation 0.00 in 0.06 in 1.82 in (1951)
Month to date precipitation 0.10 0.72  
Year to date precipitation 1.24 3.55  
Sea Level Pressure  
Sea Level Pressure 30.15 in    
Wind  
Wind Speed 10 mph (WNW)    
Max Wind Speed 24 mph    
Max Gust Speed 29 mph    
Visibility 9 miles    
Events      
T = Trace of Precipitation, MM = Missing Value Source: NWS Daily Summary

Daily Weather History Graph

Daily Weather History Graph

Search for Another Location

Airport:

Trip Planner

Search our weather history database for the weather conditions in past years. The results will help you decide how hot, cold, wet, or windy it might be!

Date:

Astronomy

May. 15, 2014 Rise Set
Actual Time 5:40 AM MDT 7:54 PM MDT
Civil Twilight 5:10 AM MDT 8:24 PM MDT
Nautical Twilight 4:34 AM MDT 9:00 PM MDT
Astronomical Twilight 3:54 AM MDT 9:40 PM MDT
Moon 9:04 PM MDT (5/15) 6:28 AM MDT (5/15)
Length of Visible Light 15h 13m
Length of Day
14h 14m
Full, 99% of the Moon is Illuminated
May 15
Full
May 21
Last Quarter
May 28
New
Jun 5
First Quarter
Jun 12
Full

Hourly Weather History & Observations

Time (MDT) Temp. Windchill Dew Point Humidity Pressure Visibility Wind Dir Wind Speed Gust Speed Precip Events Conditions
12:53 AM 41.0 °F 37.1 °F 30.9 °F 67% 30.24 in 9.0 mi SSW 5.8 mph - N/A   Clear
1:53 AM 39.9 °F 33.9 °F 32.0 °F 73% 30.23 in 9.0 mi SSW 9.2 mph - N/A   Scattered Clouds
2:53 AM 37.0 °F 32.4 °F 30.9 °F 79% 30.22 in 9.0 mi SSW 5.8 mph - N/A   Clear
3:53 AM 37.9 °F 32.1 °F 32.0 °F 79% 30.20 in 9.0 mi SSW 8.1 mph - N/A   Clear
4:53 AM 39.9 °F 35.1 °F 34.0 °F 79% 30.20 in 9.0 mi SW 6.9 mph - N/A   Overcast
5:53 AM 42.1 °F 36.6 °F 34.0 °F 73% 30.19 in 8.0 mi SW 9.2 mph - N/A   Scattered Clouds
6:53 AM 48.9 °F - 36.0 °F 61% 30.18 in 8.0 mi WSW 12.7 mph - N/A   Overcast
7:53 AM 52.0 °F - 36.0 °F 54% 30.20 in 8.0 mi WNW 15.0 mph - N/A   Overcast
8:53 AM 54.0 °F - 35.1 °F 49% 30.20 in 8.0 mi West 11.5 mph - N/A   Overcast
9:53 AM 57.0 °F - 33.1 °F 40% 30.19 in 9.0 mi WNW 9.2 mph - N/A   Overcast
10:53 AM 61.0 °F - 30.0 °F 31% 30.18 in 9.0 mi North 13.8 mph - N/A   Overcast
11:53 AM 61.0 °F - 30.9 °F 32% 30.17 in 9.0 mi NW 10.4 mph - N/A   Mostly Cloudy
1:53 PM 68.0 °F - 30.0 °F 24% 30.13 in 9.0 mi WNW 16.1 mph 23.0 mph N/A   Mostly Cloudy
2:53 PM 66.0 °F - 28.9 °F 25% 30.13 in 9.0 mi NW 19.6 mph 23.0 mph N/A   Overcast
3:53 PM 68.0 °F - 28.0 °F 22% 30.10 in 9.0 mi NNW 19.6 mph 28.8 mph N/A   Scattered Clouds
4:53 PM 66.0 °F - 28.0 °F 24% 30.09 in 9.0 mi North 10.4 mph - N/A   Mostly Cloudy
5:53 PM 66.0 °F - 27.0 °F 23% 30.08 in 9.0 mi North 15.0 mph - N/A   Mostly Cloudy
6:53 PM 66.0 °F - 28.0 °F 24% 30.06 in 9.0 mi North 12.7 mph - N/A   Scattered Clouds
7:53 PM 59.0 °F - 30.0 °F 33% 30.08 in 9.0 mi NE 8.1 mph - N/A   Scattered Clouds
8:53 PM 53.1 °F - 28.0 °F 38% 30.10 in 10.0 mi East 4.6 mph - N/A   Clear
9:53 PM 48.9 °F - 27.0 °F 43% 30.12 in 10.0 mi East 6.9 mph - N/A   Clear
10:53 PM 44.1 °F 42.5 °F 26.1 °F 49% 30.12 in 10.0 mi SE 3.5 mph - N/A   Clear
11:53 PM 43.0 °F 41.3 °F 26.1 °F 51% 30.11 in 10.0 mi SW 3.5 mph - N/A   Partly Cloudy